User: anonymous   Login
Location: Donald C. Martin Observatory
(38.3885°N, 82.3916°W)
Time: 08:00:51
(UTC-05:00)
Language:

Cosmos 1484 Rocket - Orbit

View from above orbital plane
View from above orbital plane
View from above satellite
View from above satellite

Ground track
Ground track

The orbit data is extracted from the following two-line orbital elements,

1 14208U 83075B   17016.51432605  .00000431  00000-0  29768-4 0  9993
2 14208  97.3452  33.2882 0038046 295.5192  64.2105 15.10235616824616
Epoch (UTC): 16 January 2017 12:20:37
Eccentricity: 0.0038046
inclination: 97.3452°
perigee height: 509 km
apogee height: 562 km
right ascension of ascending node: 33.2882°
argument of perigee: 295.5192°
revolutions per day: 15.10235616
mean anomaly at epoch: 64.2105°
orbit number at epoch: 82461

The dashed part of the orbit path shows where the satellite is in the earth's shadow,  

DLR